Time,TemperatureF,DewpointF,PressureIn,WindDirection,WindDirectionDegrees,WindSpeedMPH,WindSpeedGustMPH,Humidity,HourlyPrecipIn,Conditions,Clouds,dailyrainin,SoftwareType,DateUTC
2013-07-07 00:02:00,76.8,69.4,30.11,North,11,0.0,0.0,78,0.00,,,0.00,Wunderground v.1.13,2013-07-07 04:02:00,
2013-07-07 00:09:00,76.7,69.3,30.11,North,11,0.0,0.0,78,0.00,,,0.00,Wunderground v.1.13,2013-07-07 04:09:00,
2013-07-07 00:11:00,76.7,69.7,30.11,North,11,0.0,0.0,79,0.00,,,0.00,Wunderground v.1.13,2013-07-07 04:11:00,
2013-07-07 00:14:00,76.5,69.5,30.11,North,11,0.0,0.0,79,0.00,,,0.00,Wunderground v.1.13,2013-07-07 04:14:00,
2013-07-07 00:20:00,76.3,69.3,30.11,North,11,0.0,0.0,79,0.00,,,0.00,Wunderground v.1.13,2013-07-07 04:20:00,
2013-07-07 00:26:00,76.3,69.3,30.11,North,11,0.0,0.0,79,0.00,,,0.00,Wunderground v.1.13,2013-07-07 04:26:00,
2013-07-07 00:32:00,76.1,69.1,30.11,North,11,0.0,0.0,79,0.00,,,0.00,Wunderground v.1.13,2013-07-07 04:32:00,
2013-07-07 00:38:00,76.0,69.4,30.11,North,11,0.0,0.0,80,0.00,,,0.00,Wunderground v.1.13,2013-07-07 04:38:00,
2013-07-07 00:44:00,75.8,69.2,30.11,North,11,0.0,0.0,80,0.00,,,0.00,Wunderground v.1.13,2013-07-07 04:44:00,
2013-07-07 00:50:00,75.6,69.0,30.11,North,11,0.0,0.0,80,0.00,,,0.00,Wunderground v.1.13,2013-07-07 04:50:00,
2013-07-07 00:56:00,75.4,69.2,30.11,North,11,0.0,0.0,81,0.00,,,0.00,Wunderground v.1.13,2013-07-07 04:56:00,
2013-07-07 01:02:00,75.3,69.1,30.11,North,11,0.0,0.0,81,0.00,,,0.00,Wunderground v.1.13,2013-07-07 05:02:00,
2013-07-07 01:08:00,75.1,69.2,30.11,North,11,0.0,0.0,82,0.00,,,0.00,Wunderground v.1.13,2013-07-07 05:08:00,
2013-07-07 01:14:00,75.1,69.2,30.11,North,11,0.0,0.0,82,0.00,,,0.00,Wunderground v.1.13,2013-07-07 05:14:00,
2013-07-07 01:20:00,74.9,69.0,30.11,North,11,0.0,0.0,82,0.00,,,0.00,Wunderground v.1.13,2013-07-07 05:20:00,
2013-07-07 01:26:00,74.7,69.2,30.11,North,11,0.0,0.0,83,0.00,,,0.00,Wunderground v.1.13,2013-07-07 05:26:00,
2013-07-07 01:32:00,74.6,69.1,30.11,North,11,0.0,0.0,83,0.00,,,0.00,Wunderground v.1.13,2013-07-07 05:32:00,
2013-07-07 01:38:00,74.4,69.2,30.11,North,11,0.0,0.0,84,0.00,,,0.00,Wunderground v.1.13,2013-07-07 05:38:00,
2013-07-07 01:44:00,74.2,69.1,30.11,North,11,0.0,0.0,84,0.00,,,0.00,Wunderground v.1.13,2013-07-07 05:44:00,
2013-07-07 01:50:00,74.0,69.2,30.11,North,11,0.0,0.0,85,0.00,,,0.00,Wunderground v.1.13,2013-07-07 05:50:00,
2013-07-07 01:56:00,73.9,68.8,30.11,North,11,0.0,0.0,84,0.00,,,0.00,Wunderground v.1.13,2013-07-07 05:56:00,
2013-07-07 02:02:00,73.9,69.1,30.10,North,11,0.0,0.0,85,0.00,,,0.00,Wunderground v.1.13,2013-07-07 06:02:00,
2013-07-07 02:08:00,73.7,68.9,30.10,North,11,0.0,0.0,85,0.00,,,0.00,Wunderground v.1.13,2013-07-07 06:08:00,
2013-07-07 02:14:00,73.5,68.7,30.10,North,11,0.0,0.0,85,0.00,,,0.00,Wunderground v.1.13,2013-07-07 06:14:00,
2013-07-07 02:20:00,73.3,68.9,30.10,North,10,0.0,0.0,86,0.00,,,0.00,Wunderground v.1.13,2013-07-07 06:20:00,
2013-07-07 02:26:00,73.2,68.8,30.10,North,11,0.0,0.0,86,0.00,,,0.00,Wunderground v.1.13,2013-07-07 06:26:00,
2013-07-07 02:32:00,73.2,68.8,30.09,North,11,0.0,0.0,86,0.00,,,0.00,Wunderground v.1.13,2013-07-07 06:32:00,
2013-07-07 02:38:00,73.0,68.6,30.09,North,11,0.0,0.0,86,0.00,,,0.00,Wunderground v.1.13,2013-07-07 06:38:00,
2013-07-07 02:44:00,72.8,68.7,30.09,North,11,0.0,0.0,87,0.00,,,0.00,Wunderground v.1.13,2013-07-07 06:44:00,
2013-07-07 02:50:00,72.8,68.7,30.09,North,11,0.0,0.0,87,0.00,,,0.00,Wunderground v.1.13,2013-07-07 06:50:00,
2013-07-07 02:56:00,72.7,68.6,30.09,North,11,0.0,0.0,87,0.00,,,0.00,Wunderground v.1.13,2013-07-07 06:56:00,
2013-07-07 03:02:00,72.7,68.9,30.09,North,11,0.0,0.0,88,0.00,,,0.00,Wunderground v.1.13,2013-07-07 07:02:00,
2013-07-07 03:08:00,72.5,68.7,30.09,North,11,0.0,0.0,88,0.00,,,0.00,Wunderground v.1.13,2013-07-07 07:08:00,
2013-07-07 03:14:00,72.3,68.5,30.09,North,11,0.0,0.0,88,0.00,,,0.00,Wunderground v.1.13,2013-07-07 07:14:00,
2013-07-07 03:20:00,72.3,68.5,30.09,North,11,0.0,0.0,88,0.00,,,0.00,Wunderground v.1.13,2013-07-07 07:20:00,
2013-07-07 03:26:00,72.1,68.7,30.09,North,11,0.0,0.0,89,0.00,,,0.00,Wunderground v.1.13,2013-07-07 07:26:00,
2013-07-07 03:32:00,72.1,68.7,30.08,North,11,0.0,0.0,89,0.00,,,0.00,Wunderground v.1.13,2013-07-07 07:32:00,
2013-07-07 03:38:00,72.0,68.9,30.08,North,11,0.0,0.0,90,0.00,,,0.00,Wunderground v.1.13,2013-07-07 07:38:00,
2013-07-07 03:43:00,72.0,68.9,30.08,North,11,0.0,0.0,90,0.00,,,0.00,Wunderground v.1.13,2013-07-07 07:43:00,
2013-07-07 03:50:00,71.8,68.7,30.08,North,11,0.0,0.0,90,0.00,,,0.00,Wunderground v.1.13,2013-07-07 07:50:00,
2013-07-07 03:56:00,71.8,68.7,30.08,North,11,0.0,0.0,90,0.00,,,0.00,Wunderground v.1.13,2013-07-07 07:56:00,
2013-07-07 04:02:00,71.6,68.5,30.08,North,11,0.0,0.0,90,0.00,,,0.00,Wunderground v.1.13,2013-07-07 08:02:00,
2013-07-07 04:08:00,71.6,68.5,30.08,North,10,0.0,0.0,90,0.00,,,0.00,Wunderground v.1.13,2013-07-07 08:08:00,
2013-07-07 04:14:00,71.5,68.4,30.08,North,11,0.0,0.0,90,0.00,,,0.00,Wunderground v.1.13,2013-07-07 08:14:00,
2013-07-07 04:20:00,71.5,68.7,30.08,North,11,0.0,0.0,91,0.00,,,0.00,Wunderground v.1.13,2013-07-07 08:20:00,
2013-07-07 04:26:00,71.3,68.5,30.08,North,11,0.0,0.0,91,0.00,,,0.00,Wunderground v.1.13,2013-07-07 08:26:00,
2013-07-07 04:32:00,71.3,68.5,30.08,North,11,0.0,0.0,91,0.00,,,0.00,Wunderground v.1.13,2013-07-07 08:32:00,
2013-07-07 04:38:00,71.1,68.3,30.08,North,11,0.0,0.0,91,0.00,,,0.00,Wunderground v.1.13,2013-07-07 08:38:00,
2013-07-07 04:44:00,71.1,68.3,30.08,North,11,0.0,0.0,91,0.00,,,0.00,Wunderground v.1.13,2013-07-07 08:44:00,
2013-07-07 04:50:00,70.9,68.1,30.08,North,11,0.0,0.0,91,0.00,,,0.00,Wunderground v.1.13,2013-07-07 08:50:00,
2013-07-07 04:56:00,70.9,68.1,30.08,North,11,0.0,0.0,91,0.00,,,0.00,Wunderground v.1.13,2013-07-07 08:56:00,
2013-07-07 05:02:00,70.8,68.0,30.08,North,11,0.0,0.0,91,0.00,,,0.00,Wunderground v.1.13,2013-07-07 09:02:00,
2013-07-07 05:08:00,70.8,68.4,30.08,North,11,0.0,0.0,92,0.00,,,0.00,Wunderground v.1.13,2013-07-07 09:08:00,
2013-07-07 05:14:00,70.8,68.4,30.08,North,11,0.0,0.0,92,0.00,,,0.00,Wunderground v.1.13,2013-07-07 09:14:00,
2013-07-07 05:20:00,70.6,68.2,30.09,North,11,0.0,0.0,92,0.00,,,0.00,Wunderground v.1.13,2013-07-07 09:20:00,
2013-07-07 05:26:00,70.6,68.2,30.09,North,11,0.0,0.0,92,0.00,,,0.00,Wunderground v.1.13,2013-07-07 09:26:00,
2013-07-07 05:32:00,70.4,68.0,30.09,North,11,0.0,0.0,92,0.00,,,0.00,Wunderground v.1.13,2013-07-07 09:32:00,
2013-07-07 05:38:00,70.4,68.3,30.09,North,11,0.0,0.0,93,0.00,,,0.00,Wunderground v.1.13,2013-07-07 09:38:00,
2013-07-07 05:43:00,70.4,68.3,30.09,North,11,0.0,0.0,93,0.00,,,0.00,Wunderground v.1.13,2013-07-07 09:43:00,
2013-07-07 05:49:00,70.4,68.3,30.09,North,11,0.0,0.0,93,0.00,,,0.00,Wunderground v.1.13,2013-07-07 09:49:00,
2013-07-07 05:56:00,70.3,68.2,30.09,North,11,0.0,0.0,93,0.00,,,0.00,Wunderground v.1.13,2013-07-07 09:56:00,
2013-07-07 06:01:00,70.3,68.2,30.09,North,11,0.0,0.0,93,0.00,,,0.00,Wunderground v.1.13,2013-07-07 10:01:00,
2013-07-07 06:08:00,70.3,68.2,30.09,North,11,0.0,0.0,93,0.00,,,0.00,Wunderground v.1.13,2013-07-07 10:08:00,
2013-07-07 06:14:00,70.3,68.5,30.09,North,11,0.0,0.0,94,0.00,,,0.00,Wunderground v.1.13,2013-07-07 10:14:00,
2013-07-07 06:20:00,70.3,68.5,30.10,North,11,0.0,0.0,94,0.00,,,0.00,Wunderground v.1.13,2013-07-07 10:20:00,
2013-07-07 06:26:00,70.3,68.5,30.10,North,11,0.0,0.0,94,0.00,,,0.00,Wunderground v.1.13,2013-07-07 10:26:00,
2013-07-07 06:32:00,70.3,68.5,30.10,North,11,0.0,0.0,94,0.00,,,0.00,Wunderground v.1.13,2013-07-07 10:32:00,
2013-07-07 06:38:00,70.3,68.5,30.10,North,11,0.0,0.0,94,0.00,,,0.00,Wunderground v.1.13,2013-07-07 10:38:00,
2013-07-07 06:44:00,70.3,68.8,30.10,North,11,0.0,0.0,95,0.00,,,0.00,Wunderground v.1.13,2013-07-07 10:44:00,
2013-07-07 06:50:00,70.4,68.9,30.10,North,11,0.0,0.0,95,0.00,,,0.00,Wunderground v.1.13,2013-07-07 10:50:00,
2013-07-07 06:56:00,70.6,69.1,30.10,North,11,0.0,0.0,95,0.00,,,0.00,Wunderground v.1.13,2013-07-07 10:56:00,
2013-07-07 07:02:00,70.8,69.6,30.11,North,11,0.0,0.0,96,0.00,,,0.00,Wunderground v.1.13,2013-07-07 11:02:00,
2013-07-07 07:08:00,70.9,69.7,30.11,North,11,0.0,0.0,96,0.00,,,0.00,Wunderground v.1.13,2013-07-07 11:08:00,
2013-07-07 07:14:00,71.1,69.9,30.11,North,11,0.0,0.0,96,0.00,,,0.00,Wunderground v.1.13,2013-07-07 11:14:00,
2013-07-07 07:20:00,71.3,70.1,30.11,North,11,0.0,0.0,96,0.00,,,0.00,Wunderground v.1.13,2013-07-07 11:20:00,
2013-07-07 07:26:00,71.5,70.3,30.11,North,11,0.0,0.0,96,0.00,,,0.00,Wunderground v.1.13,2013-07-07 11:26:00,
2013-07-07 07:32:00,71.6,70.4,30.10,North,11,0.0,0.0,96,0.00,,,0.00,Wunderground v.1.13,2013-07-07 11:32:00,
2013-07-07 07:38:00,71.8,70.9,30.10,North,11,0.0,0.0,97,0.00,,,0.00,Wunderground v.1.13,2013-07-07 11:38:00,
2013-07-07 07:44:00,72.1,71.2,30.10,North,11,0.0,0.0,97,0.00,,,0.00,Wunderground v.1.13,2013-07-07 11:44:00,
2013-07-07 07:50:00,72.3,71.4,30.11,North,11,0.0,0.0,97,0.00,,,0.00,Wunderground v.1.13,2013-07-07 11:50:00,
2013-07-07 07:56:00,72.5,71.6,30.11,North,11,0.0,0.0,97,0.00,,,0.00,Wunderground v.1.13,2013-07-07 11:56:00,
2013-07-07 08:02:00,72.7,71.8,30.10,North,11,0.0,0.0,97,0.00,,,0.00,Wunderground v.1.13,2013-07-07 12:02:00,
2013-07-07 08:08:00,73.0,72.1,30.10,North,11,0.0,0.0,97,0.00,,,0.00,Wunderground v.1.13,2013-07-07 12:08:00,
2013-07-07 08:14:00,73.2,72.3,30.10,North,11,0.0,0.0,97,0.00,,,0.00,Wunderground v.1.13,2013-07-07 12:14:00,
2013-07-07 08:20:00,73.3,72.4,30.10,North,11,0.0,0.0,97,0.00,,,0.00,Wunderground v.1.13,2013-07-07 12:20:00,
2013-07-07 08:26:00,73.7,72.5,30.10,North,11,0.0,0.0,96,0.00,,,0.00,Wunderground v.1.13,2013-07-07 12:26:00,
2013-07-07 08:32:00,73.9,72.7,30.11,North,11,0.0,0.0,96,0.00,,,0.00,Wunderground v.1.13,2013-07-07 12:32:00,
2013-07-07 08:38:00,74.2,73.0,30.11,North,11,0.0,1.0,96,0.00,,,0.00,Wunderground v.1.13,2013-07-07 12:38:00,
2013-07-07 08:44:00,74.4,72.9,30.11,North,11,0.0,0.0,95,0.00,,,0.00,Wunderground v.1.13,2013-07-07 12:44:00,
2013-07-07 08:50:00,75.4,72.9,30.11,North,11,0.0,0.0,92,0.00,,,0.00,Wunderground v.1.13,2013-07-07 12:50:00,
2013-07-07 08:56:00,76.5,72.3,30.11,North,11,0.0,0.0,87,0.00,,,0.00,Wunderground v.1.13,2013-07-07 12:56:00,
2013-07-07 09:02:00,77.0,72.8,30.10,North,11,0.0,0.0,87,0.00,,,0.00,Wunderground v.1.13,2013-07-07 13:02:00,
2013-07-07 09:10:00,77.7,72.5,30.10,North,11,0.0,0.0,84,0.00,,,0.00,Wunderground v.1.13,2013-07-07 13:10:00,
2013-07-07 09:16:00,77.9,72.3,30.11,West,277,0.0,3.0,83,0.00,,,0.00,Wunderground v.1.13,2013-07-07 13:16:00,
2013-07-07 09:22:00,77.7,72.5,30.11,West,277,0.0,0.0,84,0.00,,,0.00,Wunderground v.1.13,2013-07-07 13:22:00,
2013-07-07 09:28:00,78.1,72.9,30.11,West,277,0.0,0.0,84,0.00,,,0.00,Wunderground v.1.13,2013-07-07 13:28:00,
2013-07-07 09:34:00,78.1,72.5,30.11,West,270,0.0,0.0,83,0.00,,,0.00,Wunderground v.1.13,2013-07-07 13:34:00,
2013-07-07 09:40:00,78.1,72.5,30.11,West,270,0.0,0.0,83,0.00,,,0.00,Wunderground v.1.13,2013-07-07 13:40:00,
2013-07-07 09:46:00,78.3,72.7,30.11,West,270,0.0,0.0,83,0.00,,,0.00,Wunderground v.1.13,2013-07-07 13:46:00,
2013-07-07 09:52:00,78.3,73.1,30.11,West,270,0.0,0.0,84,0.00,,,0.00,Wunderground v.1.13,2013-07-07 13:52:00,
2013-07-07 09:58:00,78.1,72.5,30.11,West,271,0.0,0.0,83,0.00,,,0.00,Wunderground v.1.13,2013-07-07 13:58:00,
2013-07-07 10:04:00,78.5,72.5,30.10,West,271,0.0,0.0,82,0.00,,,0.00,Wunderground v.1.13,2013-07-07 14:04:00,
2013-07-07 10:10:00,78.6,72.6,30.10,West,271,0.0,0.0,82,0.00,,,0.00,Wunderground v.1.13,2013-07-07 14:10:00,
2013-07-07 10:16:00,79.4,73.8,30.10,West,280,0.0,0.0,83,0.00,,,0.00,Wunderground v.1.13,2013-07-07 14:16:00,
2013-07-07 10:22:00,79.8,73.1,30.10,WNW,284,0.0,0.0,80,0.00,,,0.00,Wunderground v.1.13,2013-07-07 14:22:00,
2013-07-07 10:28:00,79.6,72.9,30.10,North,10,0.0,0.0,80,0.00,,,0.00,Wunderground v.1.13,2013-07-07 14:28:00,
2013-07-07 10:34:00,79.2,72.5,30.10,North,10,0.0,0.0,80,0.00,,,0.00,Wunderground v.1.13,2013-07-07 14:34:00,
2013-07-07 10:40:00,79.2,72.9,30.10,North,10,0.0,0.0,81,0.00,,,0.00,Wunderground v.1.13,2013-07-07 14:40:00,
2013-07-07 10:46:00,79.4,73.1,30.10,North,10,0.0,0.0,81,0.00,,,0.00,Wunderground v.1.13,2013-07-07 14:46:00,
2013-07-07 10:52:00,79.6,73.3,30.10,NNW,346,0.0,0.0,81,0.00,,,0.00,Wunderground v.1.13,2013-07-07 14:52:00,
2013-07-07 10:58:00,79.4,73.4,30.10,NNW,346,0.0,0.0,82,0.00,,,0.00,Wunderground v.1.13,2013-07-07 14:58:00,
2013-07-07 11:04:00,79.6,73.3,30.10,NNW,346,0.0,0.0,81,0.00,,,0.00,Wunderground v.1.13,2013-07-07 15:04:00,
2013-07-07 11:10:00,79.9,72.8,30.10,NNW,346,0.0,0.0,79,0.00,,,0.00,Wunderground v.1.13,2013-07-07 15:10:00,
2013-07-07 11:16:00,79.6,72.5,30.10,NNW,346,0.0,0.0,79,0.00,,,0.00,Wunderground v.1.13,2013-07-07 15:16:00,
2013-07-07 11:22:00,79.6,73.3,30.10,NNW,346,0.0,0.0,81,0.00,,,0.00,Wunderground v.1.13,2013-07-07 15:22:00,
2013-07-07 11:28:00,79.4,73.1,30.10,NNW,346,0.0,0.0,81,0.00,,,0.00,Wunderground v.1.13,2013-07-07 15:28:00,
2013-07-07 11:34:00,80.7,73.2,30.10,North,359,0.0,0.0,78,0.00,,,0.00,Wunderground v.1.13,2013-07-07 15:34:00,
2013-07-07 11:40:00,80.3,72.8,30.10,North,359,0.0,0.0,78,0.00,,,0.00,Wunderground v.1.13,2013-07-07 15:40:00,
2013-07-07 11:46:00,80.3,73.2,30.10,North,359,0.0,0.0,79,0.00,,,0.00,Wunderground v.1.13,2013-07-07 15:46:00,
2013-07-07 11:52:00,80.1,73.0,30.10,North,359,0.0,0.0,79,0.00,,,0.00,Wunderground v.1.13,2013-07-07 15:52:00,
2013-07-07 11:58:00,80.3,73.2,30.10,North,359,0.0,0.0,79,0.00,,,0.00,Wunderground v.1.13,2013-07-07 15:58:00,
2013-07-07 12:04:00,81.2,73.7,30.10,North,359,0.0,0.0,78,0.00,,,0.00,Wunderground v.1.13,2013-07-07 16:04:00,
2013-07-07 12:10:00,81.6,73.3,30.10,North,359,0.0,0.0,76,0.00,,,0.00,Wunderground v.1.13,2013-07-07 16:10:00,
2013-07-07 12:16:00,82.0,74.1,30.09,North,359,0.0,0.0,77,0.00,,,0.00,Wunderground v.1.13,2013-07-07 16:16:00,
2013-07-07 12:22:00,82.8,74.5,30.09,North,359,0.0,0.0,76,0.00,,,0.00,Wunderground v.1.13,2013-07-07 16:22:00,
2013-07-07 12:28:00,84.1,75.3,30.09,North,359,0.0,0.0,75,0.00,,,0.00,Wunderground v.1.13,2013-07-07 16:28:00,
2013-07-07 12:34:00,83.8,73.4,30.08,North,359,0.0,0.0,71,0.00,,,0.00,Wunderground v.1.13,2013-07-07 16:34:00,
2013-07-07 12:39:00,84.0,73.2,30.08,SW,233,0.0,1.0,70,0.00,,,0.00,Wunderground v.1.13,2013-07-07 16:39:00,
2013-07-07 12:46:00,84.7,73.0,30.08,NW,312,0.0,0.0,68,0.00,,,0.00,Wunderground v.1.13,2013-07-07 16:46:00,
2013-07-07 12:52:00,84.7,73.8,30.08,NNE,14,0.0,0.0,70,0.00,,,0.00,Wunderground v.1.13,2013-07-07 16:52:00,
2013-07-07 12:58:00,84.7,74.3,30.08,NNW,340,0.0,0.0,71,0.00,,,0.00,Wunderground v.1.13,2013-07-07 16:58:00,
2013-07-07 13:04:00,84.3,72.6,30.07,NE,40,0.0,0.0,68,0.00,,,0.00,Wunderground v.1.13,2013-07-07 17:04:00,
2013-07-07 13:10:00,83.6,74.0,30.07,NE,40,0.0,0.0,73,0.00,,,0.00,Wunderground v.1.13,2013-07-07 17:10:00,
2013-07-07 13:16:00,82.4,74.1,30.07,NNE,17,0.0,0.0,76,0.00,,,0.00,Wunderground v.1.13,2013-07-07 17:16:00,
2013-07-07 13:22:00,82.8,74.8,30.07,NNE,17,0.0,0.0,77,0.00,,,0.00,Wunderground v.1.13,2013-07-07 17:22:00,
2013-07-07 13:28:00,83.4,75.8,30.07,NNE,17,0.0,0.0,78,0.00,,,0.00,Wunderground v.1.13,2013-07-07 17:28:00,
2013-07-07 13:34:00,84.3,75.9,30.07,NNE,17,0.0,0.0,76,0.00,,,0.00,Wunderground v.1.13,2013-07-07 17:34:00,
2013-07-07 13:39:00,84.5,75.7,30.07,NNE,17,0.0,0.0,75,0.00,,,0.00,Wunderground v.1.13,2013-07-07 17:39:00,
2013-07-07 13:46:00,85.3,75.7,30.06,NNE,17,0.0,0.0,73,0.00,,,0.00,Wunderground v.1.13,2013-07-07 17:46:00,
2013-07-07 13:52:00,85.9,74.5,30.06,NNE,17,0.0,0.0,69,0.00,,,0.00,Wunderground v.1.13,2013-07-07 17:52:00,
2013-07-07 13:58:00,85.3,73.1,30.06,NNE,16,0.0,0.0,67,0.00,,,0.00,Wunderground v.1.13,2013-07-07 17:58:00,
2013-07-07 14:04:00,85.7,75.2,30.05,NNE,17,0.0,0.0,71,0.00,,,0.00,Wunderground v.1.13,2013-07-07 18:04:00,
2013-07-07 14:10:00,85.5,74.2,30.05,NNE,17,0.0,0.0,69,0.00,,,0.00,Wunderground v.1.13,2013-07-07 18:10:00,
2013-07-07 14:16:00,84.7,74.3,30.05,NNE,17,0.0,0.0,71,0.00,,,0.00,Wunderground v.1.13,2013-07-07 18:16:00,
2013-07-07 14:22:00,83.8,74.2,30.05,NNE,17,0.0,0.0,73,0.00,,,0.00,Wunderground v.1.13,2013-07-07 18:22:00,
2013-07-07 14:28:00,84.1,74.5,30.05,NNE,17,0.0,0.0,73,0.00,,,0.00,Wunderground v.1.13,2013-07-07 18:28:00,
2013-07-07 14:34:00,84.0,74.0,30.05,NNE,17,0.0,0.0,72,0.00,,,0.00,Wunderground v.1.13,2013-07-07 18:34:00,
2013-07-07 14:40:00,84.0,74.0,30.05,NNE,17,0.0,0.0,72,0.00,,,0.00,Wunderground v.1.13,2013-07-07 18:40:00,
2013-07-07 14:46:00,84.1,73.3,30.04,NNE,17,0.0,0.0,70,0.00,,,0.00,Wunderground v.1.13,2013-07-07 18:46:00,
2013-07-07 14:52:00,84.1,73.3,30.04,NNW,346,0.0,0.0,70,0.00,,,0.00,Wunderground v.1.13,2013-07-07 18:52:00,
2013-07-07 14:58:00,84.7,73.8,30.04,NNW,346,0.0,0.0,70,0.00,,,0.00,Wunderground v.1.13,2013-07-07 18:58:00,
2013-07-07 15:04:00,85.1,73.8,30.03,NNW,346,0.0,0.0,69,0.00,,,0.00,Wunderground v.1.13,2013-07-07 19:04:00,
2013-07-07 15:10:00,85.5,74.2,30.03,NNW,346,0.0,0.0,69,0.00,,,0.00,Wunderground v.1.13,2013-07-07 19:10:00,
2013-07-07 15:16:00,86.3,74.5,30.03,NNW,346,0.0,0.0,68,0.00,,,0.00,Wunderground v.1.13,2013-07-07 19:16:00,
2013-07-07 15:22:00,87.4,74.2,30.03,NNW,344,0.0,0.0,65,0.00,,,0.00,Wunderground v.1.13,2013-07-07 19:22:00,
2013-07-07 15:28:00,87.0,74.7,30.03,NW,305,0.0,0.0,67,0.00,,,0.00,Wunderground v.1.13,2013-07-07 19:28:00,
2013-07-07 15:34:00,86.7,74.0,30.02,NW,305,0.0,0.0,66,0.00,,,0.00,Wunderground v.1.13,2013-07-07 19:34:00,
2013-07-07 15:40:00,86.5,74.2,30.02,NW,305,0.0,0.0,67,0.00,,,0.00,Wunderground v.1.13,2013-07-07 19:40:00,
2013-07-07 15:46:00,86.1,74.3,30.02,NW,305,0.0,0.0,68,0.00,,,0.00,Wunderground v.1.13,2013-07-07 19:46:00,
2013-07-07 15:52:00,85.9,74.5,30.02,NW,305,0.0,0.0,69,0.00,,,0.00,Wunderground v.1.13,2013-07-07 19:52:00,
2013-07-07 15:58:00,85.9,74.1,30.02,NW,305,0.0,0.0,68,0.00,,,0.00,Wunderground v.1.13,2013-07-07 19:58:00,
2013-07-07 16:04:00,86.1,73.4,30.02,NW,305,0.0,0.0,66,0.00,,,0.00,Wunderground v.1.13,2013-07-07 20:04:00,
2013-07-07 16:10:00,86.3,73.1,30.02,NW,305,0.0,0.0,65,0.00,,,0.00,Wunderground v.1.13,2013-07-07 20:10:00,
2013-07-07 16:16:00,86.5,72.9,30.01,NW,305,0.0,0.0,64,0.00,,,0.00,Wunderground v.1.13,2013-07-07 20:16:00,
2013-07-07 16:22:00,86.5,73.8,30.01,NW,305,0.0,0.0,66,0.00,,,0.00,Wunderground v.1.13,2013-07-07 20:22:00,
2013-07-07 16:28:00,86.5,73.8,30.01,NW,305,0.0,0.0,66,0.00,,,0.00,Wunderground v.1.13,2013-07-07 20:28:00,
2013-07-07 16:34:00,86.5,73.8,30.01,NW,305,0.0,0.0,66,0.00,,,0.00,Wunderground v.1.13,2013-07-07 20:34:00,
2013-07-07 16:40:00,86.3,73.6,30.01,WNW,292,0.0,0.0,66,0.00,,,0.00,Wunderground v.1.13,2013-07-07 20:40:00,
2013-07-07 16:46:00,86.1,73.9,30.00,ENE,61,0.0,0.0,67,0.00,,,0.00,Wunderground v.1.13,2013-07-07 20:46:00,
2013-07-07 16:52:00,86.1,73.9,30.00,ENE,61,0.0,0.0,67,0.00,,,0.00,Wunderground v.1.13,2013-07-07 20:52:00,
2013-07-07 16:58:00,86.1,74.3,30.00,NW,308,0.0,0.0,68,0.00,,,0.00,Wunderground v.1.13,2013-07-07 20:58:00,
2013-07-07 17:03:00,86.1,74.3,29.99,NW,308,0.0,0.0,68,0.00,,,0.00,Wunderground v.1.13,2013-07-07 21:03:00,
2013-07-07 17:10:00,86.1,73.9,29.99,NW,308,0.0,0.0,67,0.00,,,0.00,Wunderground v.1.13,2013-07-07 21:10:00,
2013-07-07 17:16:00,86.1,74.3,29.99,NNE,20,0.0,0.0,68,0.00,,,0.00,Wunderground v.1.13,2013-07-07 21:16:00,
2013-07-07 17:22:00,85.9,73.2,29.99,NNE,20,0.0,0.0,66,0.00,,,0.00,Wunderground v.1.13,2013-07-07 21:22:00,
2013-07-07 17:28:00,85.9,73.2,29.99,NNE,20,0.0,0.0,66,0.00,,,0.00,Wunderground v.1.13,2013-07-07 21:28:00,
2013-07-07 17:34:00,85.9,74.1,29.98,NNE,20,0.0,0.0,68,0.00,,,0.00,Wunderground v.1.13,2013-07-07 21:34:00,
2013-07-07 17:40:00,85.9,74.1,29.98,NNE,20,0.0,0.0,68,0.00,,,0.00,Wunderground v.1.13,2013-07-07 21:40:00,
2013-07-07 17:46:00,85.9,74.1,29.99,NNE,20,0.0,0.0,68,0.00,,,0.00,Wunderground v.1.13,2013-07-07 21:46:00,
2013-07-07 17:52:00,85.7,73.5,29.99,NNE,20,0.0,0.0,67,0.00,,,0.00,Wunderground v.1.13,2013-07-07 21:52:00,
2013-07-07 17:58:00,85.7,73.5,29.99,NNE,20,0.0,0.0,67,0.00,,,0.00,Wunderground v.1.13,2013-07-07 21:58:00,
2013-07-07 18:04:00,85.5,73.3,29.98,NNE,20,0.0,0.0,67,0.00,,,0.00,Wunderground v.1.13,2013-07-07 22:04:00,
2013-07-07 18:10:00,85.5,73.3,29.98,NNE,20,0.0,0.0,67,0.00,,,0.00,Wunderground v.1.13,2013-07-07 22:10:00,
2013-07-07 18:16:00,85.5,73.7,29.98,NNE,20,0.0,0.0,68,0.00,,,0.00,Wunderground v.1.13,2013-07-07 22:16:00,
2013-07-07 18:22:00,85.3,74.0,29.98,NNE,20,0.0,0.0,69,0.00,,,0.00,Wunderground v.1.13,2013-07-07 22:22:00,
2013-07-07 18:28:00,85.3,74.4,29.98,NNE,20,0.0,0.0,70,0.00,,,0.00,Wunderground v.1.13,2013-07-07 22:28:00,
2013-07-07 18:34:00,85.3,74.4,29.98,NNE,20,0.0,0.0,70,0.00,,,0.00,Wunderground v.1.13,2013-07-07 22:34:00,
2013-07-07 18:40:00,85.1,74.6,29.98,NNE,20,0.0,0.0,71,0.00,,,0.00,Wunderground v.1.13,2013-07-07 22:40:00,
2013-07-07 18:46:00,85.1,74.2,29.98,NNE,20,0.0,0.0,70,0.00,,,0.00,Wunderground v.1.13,2013-07-07 22:46:00,
2013-07-07 18:52:00,85.1,74.6,29.98,NNE,20,0.0,0.0,71,0.00,,,0.00,Wunderground v.1.13,2013-07-07 22:52:00,
2013-07-07 18:58:00,84.9,74.0,29.98,NNE,20,0.0,0.0,70,0.00,,,0.00,Wunderground v.1.13,2013-07-07 22:58:00,
2013-07-07 19:04:00,84.9,74.4,29.98,NNE,20,0.0,0.0,71,0.00,,,0.00,Wunderground v.1.13,2013-07-07 23:04:00,
2013-07-07 19:10:00,84.7,74.3,29.98,NNE,20,0.0,0.0,71,0.00,,,0.00,Wunderground v.1.13,2013-07-07 23:10:00,
2013-07-07 19:16:00,84.7,74.3,29.98,NNE,20,0.0,0.0,71,0.00,,,0.00,Wunderground v.1.13,2013-07-07 23:16:00,
2013-07-07 19:22:00,84.7,74.7,29.98,NNE,20,0.0,0.0,72,0.00,,,0.00,Wunderground v.1.13,2013-07-07 23:22:00,
2013-07-07 19:28:00,84.5,74.5,29.98,NNE,20,0.0,0.0,72,0.00,,,0.00,Wunderground v.1.13,2013-07-07 23:28:00,
2013-07-07 19:34:00,84.3,74.7,29.99,NNE,20,0.0,0.0,73,0.00,,,0.00,Wunderground v.1.13,2013-07-07 23:34:00,
2013-07-07 19:40:00,84.3,74.7,29.99,NNE,20,0.0,0.0,73,0.00,,,0.00,Wunderground v.1.13,2013-07-07 23:40:00,
2013-07-07 19:46:00,84.1,74.5,29.99,NNE,20,0.0,0.0,73,0.00,,,0.00,Wunderground v.1.13,2013-07-07 23:46:00,
2013-07-07 19:54:00,84.0,74.8,29.99,NNE,20,0.0,0.0,74,0.00,,,0.00,Wunderground v.1.13,2013-07-07 23:54:00,
2013-07-07 20:00:00,83.8,74.6,29.99,NNE,20,0.0,0.0,74,0.00,,,0.00,Wunderground v.1.13,2013-07-08 00:00:00,
2013-07-07 20:06:00,83.6,74.4,30.00,NNE,20,0.0,0.0,74,0.00,,,0.00,Wunderground v.1.13,2013-07-08 00:06:00,
2013-07-07 20:12:00,83.4,74.6,30.00,NNE,20,0.0,0.0,75,0.00,,,0.00,Wunderground v.1.13,2013-07-08 00:12:00,
2013-07-07 20:18:00,83.2,74.8,29.99,NNE,20,0.0,0.0,76,0.00,,,0.00,Wunderground v.1.13,2013-07-08 00:18:00,
2013-07-07 20:24:00,82.8,74.8,29.99,NNE,20,0.0,0.0,77,0.00,,,0.00,Wunderground v.1.13,2013-07-08 00:24:00,
2013-07-07 20:30:00,82.6,74.7,29.99,NNE,20,0.0,0.0,77,0.00,,,0.00,Wunderground v.1.13,2013-07-08 00:30:00,
2013-07-07 20:36:00,82.4,74.5,30.00,NNE,20,0.0,0.0,77,0.00,,,0.00,Wunderground v.1.13,2013-07-08 00:36:00,
2013-07-07 20:41:00,82.0,74.5,30.00,NNE,20,0.0,0.0,78,0.00,,,0.00,Wunderground v.1.13,2013-07-08 00:41:00,
2013-07-07 20:48:00,81.8,74.3,30.00,NNE,20,0.0,0.0,78,0.00,,,0.00,Wunderground v.1.13,2013-07-08 00:48:00,
2013-07-07 20:54:00,81.6,74.8,30.00,NNE,20,0.0,0.0,80,0.00,,,0.00,Wunderground v.1.13,2013-07-08 00:54:00,
2013-07-07 21:00:00,81.4,74.6,30.00,NNE,20,0.0,0.0,80,0.00,,,0.00,Wunderground v.1.13,2013-07-08 01:00:00,
2013-07-07 21:06:00,81.2,74.4,30.01,NNE,20,0.0,0.0,80,0.00,,,0.00,Wunderground v.1.13,2013-07-08 01:06:00,
2013-07-07 21:12:00,80.9,74.5,30.01,NNE,20,0.0,0.0,81,0.00,,,0.00,Wunderground v.1.13,2013-07-08 01:12:00,
2013-07-07 21:18:00,80.7,74.3,30.02,NNE,20,0.0,0.0,81,0.00,,,0.00,Wunderground v.1.13,2013-07-08 01:18:00,
2013-07-07 21:24:00,80.5,74.5,30.02,NNE,20,0.0,0.0,82,0.00,,,0.00,Wunderground v.1.13,2013-07-08 01:24:00,
2013-07-07 21:30:00,80.1,74.1,30.02,NNE,20,0.0,0.0,82,0.00,,,0.00,Wunderground v.1.13,2013-07-08 01:30:00,
2013-07-07 21:36:00,79.9,74.6,30.03,NNE,18,0.0,0.0,84,0.00,,,0.00,Wunderground v.1.13,2013-07-08 01:36:00,
2013-07-07 21:42:00,79.6,74.3,30.03,North,7,0.0,0.0,84,0.00,,,0.00,Wunderground v.1.13,2013-07-08 01:42:00,
2013-07-07 21:48:00,79.4,73.8,30.04,North,7,0.0,0.0,83,0.00,,,0.00,Wunderground v.1.13,2013-07-08 01:48:00,
2013-07-07 21:54:00,79.4,74.1,30.04,North,7,0.0,0.0,84,0.00,,,0.00,Wunderground v.1.13,2013-07-08 01:54:00,
2013-07-07 22:00:00,79.2,73.6,30.04,North,7,0.0,0.0,83,0.00,,,0.00,Wunderground v.1.13,2013-07-08 02:00:00,
2013-07-07 22:06:00,79.0,73.7,30.04,North,7,0.0,0.0,84,0.00,,,0.00,Wunderground v.1.13,2013-07-08 02:06:00,
2013-07-07 22:12:00,78.8,73.6,30.04,North,7,0.0,0.0,84,0.00,,,0.00,Wunderground v.1.13,2013-07-08 02:12:00,
2013-07-07 22:18:00,78.8,73.6,30.05,North,7,0.0,0.0,84,0.00,,,0.00,Wunderground v.1.13,2013-07-08 02:18:00,
2013-07-07 22:24:00,78.6,73.0,30.05,North,7,0.0,0.0,83,0.00,,,0.00,Wunderground v.1.13,2013-07-08 02:24:00,
2013-07-07 22:30:00,78.5,72.9,30.05,North,7,0.0,0.0,83,0.00,,,0.00,Wunderground v.1.13,2013-07-08 02:30:00,
2013-07-07 22:36:00,78.3,73.1,30.04,North,7,0.0,0.0,84,0.00,,,0.00,Wunderground v.1.13,2013-07-08 02:36:00,
2013-07-07 22:42:00,78.3,73.1,30.04,North,7,0.0,0.0,84,0.00,,,0.00,Wunderground v.1.13,2013-07-08 02:42:00,
2013-07-07 22:48:00,78.1,72.9,30.04,North,7,0.0,0.0,84,0.00,,,0.00,Wunderground v.1.13,2013-07-08 02:48:00,
2013-07-07 22:54:00,77.9,72.3,30.04,North,7,0.0,0.0,83,0.00,,,0.00,Wunderground v.1.13,2013-07-08 02:54:00,
2013-07-07 23:00:00,77.9,72.3,30.04,North,7,0.0,0.0,83,0.00,,,0.00,Wunderground v.1.13,2013-07-08 03:00:00,
2013-07-07 23:06:00,77.7,72.1,30.05,North,7,0.0,0.0,83,0.00,,,0.00,Wunderground v.1.13,2013-07-08 03:06:00,
2013-07-07 23:12:00,77.6,72.4,30.05,North,7,0.0,0.0,84,0.00,,,0.00,Wunderground v.1.13,2013-07-08 03:12:00,
2013-07-07 23:18:00,77.6,72.4,30.05,North,7,0.0,0.0,84,0.00,,,0.00,Wunderground v.1.13,2013-07-08 03:18:00,
2013-07-07 23:24:00,77.6,72.4,30.05,North,7,0.0,0.0,84,0.00,,,0.00,Wunderground v.1.13,2013-07-08 03:24:00,
2013-07-07 23:30:00,77.4,72.5,30.05,North,7,0.0,0.0,85,0.00,,,0.00,Wunderground v.1.13,2013-07-08 03:30:00,
2013-07-07 23:36:00,77.2,72.0,30.06,North,352,1.0,1.0,84,0.00,,,0.00,Wunderground v.1.13,2013-07-08 03:36:00,
2013-07-07 23:42:00,77.0,71.1,30.06,North,0,2.0,2.0,82,0.00,,,0.00,Wunderground v.1.13,2013-07-08 03:42:00,
2013-07-07 23:48:00,77.0,71.8,30.06,North,0,1.0,1.0,84,0.00,,,0.00,Wunderground v.1.13,2013-07-08 03:48:00,
2013-07-07 23:54:00,76.8,71.2,30.06,North,352,0.0,2.0,83,0.00,,,0.00,Wunderground v.1.13,2013-07-08 03:54:00,